[[{"header":{"parameterUnit":"m.s-1","parameterCategory":1,"la1":30.2991,"la2":30.254,"lo1":-89.0895,"lo2":-89.0444,"dy":0.0017,"dx":0.0017,"nx":28,"ny":28,"refTime":"2024-07-01T09:00:00:Z","depth":0,"parameterNumber":2,"parameterNumberName":"U-component_of_WINDS"},"data":[0,0,0,0,0,0,0,0,0,0,0,0,0,0,0,0,0,0,0,0,0,0,0,0,0,0,0,0,0,0,0,0,0,0,0,0,0,0,0,0,0,0,0,0,0,0,0,0,0,0,0,0,0,0,0,0,0,0,1.9378,1.9379,0,1.944,1.9441,1.9441,1.943,1.9429,1.9428,1.9427,1.9489,1.9491,1.9494,0,0,0,0,0,0,0,0,0,0,0,0,0,1.9249,1.9251,1.9378,1.9379,1.938,1.944,1.9441,1.9441,1.9431,1.9429,1.9428,1.9427,1.9488,1.9491,1.9494,0,0,0,0,0,0,0,0,0,0,0,0,0,1.9307,1.9252,1.9378,1.9381,1.9382,1.944,1.9441,1.9442,1.9431,1.9429,1.9428,1.9426,1.9487,1.9491,1.9494,1.9551,0,0,1.9507,1.9508,0,0,0,0,0,0,0,0,1.9304,1.9312,1.938,1.9381,1.9382,1.9426,1.9418,1.9478,1.9431,1.9412,1.9427,1.9425,1.9469,1.9474,1.9489,1.9554,1.9557,1.9507,1.9509,1.9511,1.9512,0,0,0,0,0,0,0,1.93,1.9309,1.9402,1.9381,1.9383,1.9379,1.9386,1.9429,1.9449,1.9414,1.9413,1.9421,1.9469,1.9485,1.9491,1.9558,1.9507,1.951,1.9513,1.9514,1.9673,1.9675,0,0,0,0,0,0,1.9295,1.9306,1.94,1.9404,1.9339,1.9383,1.939,1.9413,1.9448,1.9452,1.9422,1.942,1.948,1.9486,1.9493,1.9562,1.9511,1.9515,1.9517,1.9671,1.9673,1.9675,0,0,0,0,0,0,1.9292,1.9304,1.9398,1.9355,1.9367,1.9387,1.9413,1.9416,1.9432,1.9455,1.9458,1.9435,1.9478,1.9487,1.9537,1.9564,1.9516,1.952,1.9669,1.9672,1.9674,1.9701,0,0,0,0,0,0,1.9289,1.9303,1.9325,1.9356,1.9369,1.9442,1.9415,1.9418,1.9439,1.9437,1.9468,1.9471,1.9478,1.9531,1.9541,1.9568,1.9523,1.9667,1.967,1.9674,1.9697,1.9704,1.9709,0,0,0,0,0,1.9284,1.9329,1.9326,1.9337,1.9397,1.9443,1.9451,1.9458,1.9441,1.9463,1.9478,1.947,1.956,1.9536,1.9547,1.9576,1.9665,1.9669,1.9673,1.9695,1.9703,1.9709,0,0,0,0,0,0,1.93,1.9333,1.933,1.9386,1.9412,1.9441,1.9469,1.9466,1.9497,1.9493,1.95,1.9507,1.9558,1.9572,1.9546,1.9634,1.961,1.9616,1.9622,1.963,1.9636,1.9631,1.9526,0,0,0,0,0,1.931,1.9345,1.9372,1.9419,1.9433,1.9449,1.9469,1.9473,1.9499,1.951,1.9528,1.9554,1.9588,1.961,1.9642,1.97,1.9706,1.9725,1.9731,1.9736,1.9741,1.9773,1.9782,1.9689,1.9689,1.9689,0,0,1.9331,1.9354,1.9375,1.9423,1.9443,1.9479,1.9458,1.9497,1.9523,1.9515,1.9564,1.9578,1.9608,1.9662,1.9686,1.9675,1.9769,1.9741,1.9745,1.9748,1.9778,1.9787,1.9795,1.9692,1.9691,1.9691,0,0,1.9388,1.9409,1.945,1.9472,1.9503,1.9514,1.9524,1.9554,1.9564,1.9613,1.9608,1.9639,1.9697,1.9718,1.9737,1.9803,1.9797,1.9813,1.9844,1.9875,1.9882,1.9889,1.9912,1.9921,1.9818,1.9819,1.9819,0,1.941,1.9464,1.9472,1.9512,1.9533,1.9529,1.9571,1.9591,1.9631,1.9645,1.9632,1.9706,1.9725,1.9784,1.98,1.9816,1.9827,1.9809,1.9881,1.9887,1.9894,1.9916,1.9925,1.982,1.982,1.982,1.982,0,1.949,1.9528,1.9557,1.9597,1.9622,1.9662,1.9676,1.97,1.9702,1.9714,1.9764,1.9787,1.9824,1.9839,1.984,1.9898,1.989,1.9879,1.9855,1.9904,1.9925,1.9934,1.9823,1.9822,1.9822,1.9821,0,0,1.9557,1.9602,1.9613,1.9631,1.9666,1.9695,1.9735,1.9773,1.9793,1.9821,1.9855,1.9905,1.9895,1.9916,1.992,1.9947,1.9998,1.9933,1.9933,1.9944,2.0064,2.0072,2.0082,1.9995,1.9996,1.9998,2.0061,0,1.9617,1.9689,1.9698,1.9762,1.9797,1.9794,1.9829,1.9854,1.9867,1.9898,1.9912,1.9947,1.9931,1.9944,1.9971,1.9986,2.0022,1.9982,2.0026,2.0027,2.0018,2.0093,2.0101,2.016,2.007,2.0071,2.0072,0,1.9696,1.9728,1.9796,1.9826,1.9841,1.9873,1.9908,1.9938,1.9966,1.9974,1.9998,1.9998,2.004,2.0015,2.0073,2.0045,2.0064,2.0074,2.0077,2.0081,2.0052,2.0098,2.0179,2.0187,2.0085,2.0084,2.0083,0,1.9739,1.9798,1.9846,1.9862,1.9899,1.9921,1.9938,1.9965,1.9987,2.0017,2.0032,2.0066,2.0085,2.0112,2.0122,2.0103,2.018,2.0155,2.0186,2.0186,2.0202,2.0201,2.0286,2.0215,2.0215,2.0214,2.0214,0,1.9805,1.9846,1.9866,1.9895,1.9942,1.9952,1.9997,2.0012,2.0037,2.0069,2.0068,2.0099,2.011,2.0143,2.0151,2.0197,2.0206,2.0213,2.0214,2.0213,2.0212,2.0225,2.0221,2.0217,2.0216,2.0216,2.0215,0,1.986,1.9874,1.9927,1.9958,1.9967,2.0,2.0026,2.0055,2.0067,2.0108,2.0118,2.0138,2.0176,2.0189,2.0235,2.0241,2.0295,2.0293,2.0285,2.0285,2.0315,2.0312,2.0412,2.0425,2.0345,2.0346,2.0347,0,1.99,1.9932,1.9967,1.9989,2.0007,2.0042,2.0065,2.0076,2.0099,2.0135,2.0159,2.0197,2.0228,2.0289,2.0307,2.0342,2.0341,2.0373,2.0346,2.0343,2.0341,2.0339,2.0342,2.0378,2.0379,2.038,2.038,0,1.9971,1.9977,2.001,2.0047,2.0074,2.0103,2.013,2.0148,2.0163,2.019,2.0229,2.0253,2.03,2.0338,2.0374,2.0391,2.0388,2.0389,2.0398,2.0396,2.039,2.0394,2.0299,2.0386,2.0386,2.0385,2.0385,2.0385,2.0021,2.0049,2.0078,2.0115,2.0137,2.0164,2.0192,2.0209,2.0242,2.0282,2.0286,2.0328,2.0356,2.0405,2.0423,2.0456,2.0447,2.046,2.0463,2.0466,2.0468,2.0386,2.0463,2.0462,2.0462,2.0462,2.0462,0,2.0091,2.011,2.0144,2.0184,2.0213,2.0209,2.0239,2.0264,2.0301,2.0328,2.0359,2.0404,2.044,2.0462,2.0499,2.0521,2.0521,2.053,2.0529,2.0532,2.0474,2.0463,2.053,2.053,2.053,2.053,2.053,2.053,2.0132,2.018,2.0189,2.0248,2.0267,2.0309,2.0327,2.0351,2.0372,2.0423,2.0454,2.0468,2.0492,2.0531,2.0564,2.057,2.0583,2.0594,2.0598,2.0543,2.0536,2.053,2.0519,2.0597,2.0597,2.0653,2.0654,2.0654]},{"header":{"parameterUnit":"m.s-1","parameterCategory":1,"la1":30.2991,"la2":30.254,"lo1":-89.0895,"lo2":-89.0444,"dy":0.0017,"dx":0.0017,"nx":28,"ny":28,"refTime":"2024-07-01T09:00:00:Z","depth":0,"parameterNumber":3,"parameterNumberName":"V-component_of_WINDS"},"data":[0,0,0,0,0,0,0,0,0,0,0,0,0,0,0,0,0,0,0,0,0,0,0,0,0,0,0,0,0,0,0,0,0,0,0,0,0,0,0,0,0,0,0,0,0,0,0,0,0,0,0,0,0,0,0,0,0,0,-2.6209,-2.621,0,-2.6296,-2.6297,-2.6298,-2.6282,-2.628,-2.6279,-2.6277,-2.6364,-2.6368,-2.6371,0,0,0,0,0,0,0,0,0,0,0,0,0,-2.6024,-2.6028,-2.6209,-2.621,-2.6211,-2.6296,-2.6298,-2.6299,-2.6282,-2.628,-2.6278,-2.6276,-2.6363,-2.6367,-2.6372,0,0,0,0,0,0,0,0,0,0,0,0,0,-2.6107,-2.6029,-2.6208,-2.6213,-2.6214,-2.6296,-2.6298,-2.6299,-2.6282,-2.628,-2.6278,-2.6275,-2.6361,-2.6367,-2.6372,-2.6455,0,0,-2.639,-2.6392,0,0,0,0,0,0,0,0,-2.6103,-2.6114,-2.6211,-2.6213,-2.6214,-2.6276,-2.6264,-2.6351,-2.6283,-2.6256,-2.6277,-2.6274,-2.6336,-2.6344,-2.6366,-2.6459,-2.6462,-2.639,-2.6394,-2.6396,-2.6398,0,0,0,0,0,0,0,-2.6097,-2.611,-2.6243,-2.6213,-2.6214,-2.621,-2.6219,-2.6281,-2.6308,-2.6259,-2.6258,-2.6268,-2.6337,-2.636,-2.6367,-2.6464,-2.639,-2.6395,-2.6399,-2.6401,-2.6629,-2.6632,0,0,0,0,0,0,-2.609,-2.6106,-2.624,-2.6246,-2.6152,-2.6215,-2.6225,-2.6258,-2.6308,-2.6313,-2.627,-2.6267,-2.6352,-2.6361,-2.637,-2.647,-2.6396,-2.6401,-2.6405,-2.6626,-2.663,-2.6633,0,0,0,0,0,0,-2.6086,-2.6102,-2.6237,-2.6176,-2.6192,-2.6221,-2.6258,-2.6261,-2.6285,-2.6317,-2.6321,-2.6289,-2.635,-2.6362,-2.6434,-2.6473,-2.6404,-2.6409,-2.6623,-2.6627,-2.6631,-2.667,0,0,0,0,0,0,-2.6081,-2.6101,-2.6133,-2.6177,-2.6196,-2.63,-2.626,-2.6265,-2.6295,-2.6292,-2.6336,-2.6341,-2.6349,-2.6426,-2.644,-2.648,-2.6414,-2.662,-2.6625,-2.663,-2.6666,-2.6675,-2.6683,0,0,0,0,0,-2.6075,-2.614,-2.6135,-2.6151,-2.6236,-2.6302,-2.6313,-2.6323,-2.6298,-2.633,-2.6351,-2.6339,-2.6467,-2.6433,-2.6449,-2.6491,-2.6618,-2.6624,-2.6629,-2.6662,-2.6673,-2.6683,0,0,0,0,0,0,-2.6099,-2.6145,-2.614,-2.6222,-2.6258,-2.6299,-2.634,-2.6334,-2.6378,-2.6373,-2.6382,-2.6392,-2.6465,-2.6485,-2.6447,-2.6573,-2.6538,-2.6548,-2.6558,-2.6569,-2.6577,-2.6571,-2.6418,0,0,0,0,0,-2.6114,-2.6164,-2.6202,-2.627,-2.6289,-2.6311,-2.634,-2.6345,-2.6382,-2.6397,-2.6423,-2.646,-2.6508,-2.6539,-2.6586,-2.6669,-2.6678,-2.6705,-2.6714,-2.6721,-2.6729,-2.6775,-2.6787,-2.6652,-2.6652,-2.6652,0,0,-2.6145,-2.6177,-2.6208,-2.6276,-2.6304,-2.6356,-2.6324,-2.638,-2.6418,-2.6406,-2.6475,-2.6496,-2.6537,-2.6615,-2.665,-2.6633,-2.6768,-2.6729,-2.6734,-2.6738,-2.6782,-2.6795,-2.6806,-2.6656,-2.6656,-2.6655,0,0,-2.6228,-2.6257,-2.6317,-2.6347,-2.6392,-2.6407,-2.6421,-2.6463,-2.6477,-2.6547,-2.6539,-2.6584,-2.6667,-2.6697,-2.6723,-2.6819,-2.681,-2.6833,-2.6879,-2.6924,-2.6934,-2.6944,-2.6978,-2.699,-2.6841,-2.6841,-2.6841,0,-2.626,-2.6338,-2.6349,-2.6406,-2.6436,-2.6428,-2.6489,-2.6517,-2.6574,-2.6595,-2.6576,-2.6681,-2.6708,-2.6793,-2.6816,-2.6837,-2.6854,-2.6828,-2.6932,-2.6942,-2.6951,-2.6983,-2.6996,-2.6844,-2.6844,-2.6843,-2.6843,0,-2.6377,-2.6431,-2.6474,-2.6531,-2.6566,-2.6624,-2.6643,-2.6677,-2.6678,-2.6695,-2.6767,-2.6799,-2.6852,-2.6873,-2.6874,-2.6958,-2.6947,-2.693,-2.6895,-2.6966,-2.6997,-2.7009,-2.6848,-2.6847,-2.6846,-2.6845,0,0,-2.6476,-2.6539,-2.6555,-2.658,-2.663,-2.6671,-2.6729,-2.6782,-2.6812,-2.6851,-2.69,-2.6971,-2.6956,-2.6986,-2.6991,-2.703,-2.7104,-2.7008,-2.7009,-2.7025,-2.7198,-2.7211,-2.7225,-2.7098,-2.7101,-2.7103,-2.7195,0,-2.6564,-2.6668,-2.6679,-2.6771,-2.6821,-2.6816,-2.6866,-2.6902,-2.6919,-2.6964,-2.6982,-2.7033,-2.7009,-2.7027,-2.7066,-2.7087,-2.7139,-2.708,-2.7143,-2.7145,-2.7133,-2.7241,-2.7254,-2.734,-2.7207,-2.7209,-2.7211,0,-2.668,-2.6724,-2.6822,-2.6865,-2.6886,-2.6932,-2.6982,-2.7025,-2.7065,-2.7074,-2.7108,-2.7108,-2.7168,-2.7131,-2.7213,-2.7173,-2.72,-2.7214,-2.7218,-2.7224,-2.7182,-2.725,-2.7368,-2.738,-2.723,-2.7228,-2.7227,0,-2.6743,-2.6827,-2.6897,-2.6919,-2.6971,-2.7003,-2.7026,-2.7064,-2.7095,-2.7138,-2.7159,-2.7208,-2.7235,-2.7273,-2.7286,-2.7258,-2.7368,-2.7332,-2.7377,-2.7377,-2.74,-2.7398,-2.7523,-2.7417,-2.7417,-2.7417,-2.7417,0,-2.6839,-2.6899,-2.6926,-2.6969,-2.7036,-2.7048,-2.7114,-2.7135,-2.7169,-2.7215,-2.7213,-2.7256,-2.7271,-2.7317,-2.7328,-2.7394,-2.7406,-2.7416,-2.7418,-2.7416,-2.7415,-2.7433,-2.7428,-2.742,-2.742,-2.7419,-2.7418,0,-2.6921,-2.6941,-2.7017,-2.706,-2.7072,-2.712,-2.7157,-2.7198,-2.7215,-2.7274,-2.7288,-2.7315,-2.7369,-2.7386,-2.7451,-2.7458,-2.7536,-2.7532,-2.7523,-2.7523,-2.7567,-2.7563,-2.7708,-2.7728,-2.7609,-2.761,-2.7611,0,-2.6981,-2.7027,-2.7076,-2.7108,-2.7132,-2.7183,-2.7215,-2.7229,-2.7263,-2.7313,-2.7348,-2.7402,-2.7445,-2.7532,-2.7556,-2.7606,-2.7604,-2.7652,-2.7611,-2.7608,-2.7605,-2.7602,-2.7607,-2.7659,-2.766,-2.7661,-2.7662,0,-2.7086,-2.7094,-2.7141,-2.7193,-2.7232,-2.7272,-2.7312,-2.7337,-2.7357,-2.7395,-2.7451,-2.7485,-2.7552,-2.7605,-2.7656,-2.7679,-2.7674,-2.7675,-2.7688,-2.7686,-2.7679,-2.7684,-2.7543,-2.7671,-2.767,-2.767,-2.7669,-2.7669,-2.7159,-2.72,-2.7241,-2.7294,-2.7325,-2.7362,-2.7404,-2.7426,-2.7474,-2.753,-2.7535,-2.7596,-2.7635,-2.7703,-2.7728,-2.7775,-2.7761,-2.778,-2.7785,-2.779,-2.7793,-2.7672,-2.7784,-2.7784,-2.7784,-2.7784,-2.7783,0,-2.7263,-2.729,-2.7339,-2.7394,-2.7436,-2.7429,-2.7473,-2.7508,-2.7561,-2.7599,-2.7642,-2.7707,-2.7759,-2.7788,-2.784,-2.7872,-2.7871,-2.7885,-2.7883,-2.7888,-2.7802,-2.7786,-2.7885,-2.7885,-2.7885,-2.7885,-2.7885,-2.7885,-2.7323,-2.7392,-2.7405,-2.749,-2.7516,-2.7576,-2.7602,-2.7636,-2.7666,-2.7739,-2.7782,-2.7801,-2.7836,-2.789,-2.7938,-2.7945,-2.7964,-2.798,-2.7986,-2.7905,-2.7894,-2.7884,-2.7869,-2.7984,-2.7984,-2.8067,-2.8068,-2.8069]}]]